When you browse on this site, cookies collect data to enhance your experience and personalize the content and advertising you see.
Visit our Privacy Policy to learn more. By continuing to use the site, you agree to this use of cookies and data.
  • In Portugal
  • List of Countries
  • For 7 days
  • Water Temperature
  • Satellite Maps
  • Weather Map
  • Weather Widgets
  • user-avatar
    Login

    Hourly Weather Ogarevo

    Today, 20 June, Thursday

    Time Temperature Precipitation Wind Pressure Humidity
    00:00 +18°C° 0 mm 1 mps 743 mmHg 87%
    01:00 +16°C° 0 mm 1 mps 744 mmHg 87%
    02:00 +16°C° 0 mm 1 mps 744 mmHg 88%
    03:00 +16°C° 0 mm 1 mps 744 mmHg 87%
    04:00 +16°C° 0 mm 1 mps 744 mmHg 86%
    05:00 +18°C° 0 mm 1 mps 744 mmHg 86%
    06:00 +19°C° 0 mm 1 mps 745 mmHg 85%
    07:00 +20°C° 0 mm 2 mps 745 mmHg 80%
    08:00 +23°C° 0 mm 2 mps 745 mmHg 76%
    09:00 +24°C° 0 mm 2 mps 745 mmHg 71%
    10:00 +25°C° 0 mm 3 mps 745 mmHg 66%
    11:00 +26°C° 0 mm 3 mps 745 mmHg 62%
    12:00 +26°C° 0 mm 3 mps 745 mmHg 58%
    13:00 +27°C° 0 mm 3 mps 745 mmHg 56%
    14:00 +27°C° 0 mm 3 mps 745 mmHg 54%
    15:00 +28°C° 0 mm 2 mps 745 mmHg 56%
    16:00 +27°C° 0 mm 2 mps 745 mmHg 59%
    17:00 +27°C° 0 mm 2 mps 745 mmHg 62%
    18:00 +26°C° 0 mm 1 mps 745 mmHg 64%
    19:00 +24°C° 0 mm 1 mps 745 mmHg 67%
    20:00 +22°C° 0 mm 1 mps 745 mmHg 71%
    21:00 +19°C° 0 mm 0 mps 745 mmHg 74%
    22:00 +18°C° 0 mm 0 mps 746 mmHg 75%
    23:00 +18°C° 0 mm 0 mps 746 mmHg 76%

    Tomorrow, 21 June, Friday

    Time Temperature Precipitation Wind Pressure Humidity
    00:00 +17°C° 0 mm 0 mps 746 mmHg 76%
    01:00 +19°C° 0 mm 1 mps 746 mmHg 78%
    02:00 +18°C° 0 mm 1 mps 746 mmHg 80%
    03:00 +18°C° 0 mm 1 mps 747 mmHg 81%
    04:00 +19°C° 0 mm 1 mps 747 mmHg 80%
    05:00 +20°C° 0 mm 1 mps 747 mmHg 78%
    06:00 +19°C° 0 mm 0 mps 747 mmHg 77%
    07:00 +21°C° 0 mm 0 mps 747 mmHg 72%
    08:00 +22°C° 0 mm 0 mps 748 mmHg 67%
    09:00 +26°C° 0 mm 1 mps 748 mmHg 62%
    10:00 +27°C° 0 mm 1 mps 748 mmHg 57%
    11:00 +27°C° 0 mm 1 mps 748 mmHg 51%
    12:00 +28°C° 0 mm 1 mps 748 mmHg 45%
    13:00 +28°C° 0 mm 1 mps 747 mmHg 46%
    14:00 +28°C° 0 mm 1 mps 747 mmHg 47%
    15:00 +29°C° 0 mm 2 mps 747 mmHg 49%
    16:00 +28°C° 0 mm 2 mps 747 mmHg 53%
    17:00 +28°C° 0 mm 2 mps 747 mmHg 58%
    18:00 +27°C° 0 mm 2 mps 747 mmHg 62%
    19:00 +26°C° 0 mm 2 mps 747 mmHg 63%
    20:00 +24°C° 0 mm 2 mps 747 mmHg 64%
    21:00 +21°C° 0 mm 2 mps 747 mmHg 64%
    22:00 +21°C° 0 mm 2 mps 747 mmHg 64%
    23:00 +20°C° 0 mm 2 mps 747 mmHg 64%

    Day after tomorrow, 22 June, Saturday

    Time Temperature Precipitation Wind Pressure Humidity
    00:00 +20°C° 0 mm 2 mps 747 mmHg 64%
    01:00 +20°C° 0 mm 2 mps 747 mmHg 66%
    02:00 +19°C° 0 mm 2 mps 747 mmHg 67%
    03:00 +19°C° 0 mm 2 mps 747 mmHg 68%
    04:00 +19°C° 0 mm 2 mps 747 mmHg 71%
    05:00 +20°C° 0 mm 2 mps 747 mmHg 74%
    06:00 +20°C° 0 mm 2 mps 747 mmHg 77%
    07:00 +23°C° 0 mm 2 mps 748 mmHg 75%
    08:00 +24°C° 0 mm 3 mps 748 mmHg 73%
    09:00 +25°C° 0 mm 3 mps 748 mmHg 71%
    10:00 +26°C° 0.2 mm 4 mps 748 mmHg 67%
    11:00 +27°C° 0.2 mm 4 mps 748 mmHg 63%
    12:00 +28°C° 0.2 mm 5 mps 747 mmHg 59%
    13:00 +28°C° 0.1 mm 5 mps 747 mmHg 58%
    14:00 +28°C° 0.1 mm 5 mps 747 mmHg 58%
    15:00 +29°C° 0.1 mm 5 mps 747 mmHg 58%
    16:00 +28°C° 0.1 mm 5 mps 747 mmHg 63%
    17:00 +28°C° 0.1 mm 4 mps 746 mmHg 68%
    18:00 +27°C° 0.1 mm 3 mps 746 mmHg 73%
    19:00 +26°C° 0 mm 3 mps 746 mmHg 74%
    20:00 +24°C° 0 mm 3 mps 746 mmHg 75%
    21:00 +22°C° 0 mm 3 mps 746 mmHg 77%
    22:00 +21°C° 0 mm 3 mps 746 mmHg 78%
    23:00 +20°C° 0 mm 3 mps 746 mmHg 79%

    23 June, Sunday

    Time Temperature Precipitation Wind Pressure Humidity
    00:00 +20°C° 0 mm 3 mps 746 mmHg 81%
    01:00 +20°C° 0 mm 3 mps 746 mmHg 82%
    02:00 +19°C° 0 mm 3 mps 746 mmHg 83%
    03:00 +19°C° 0 mm 3 mps 746 mmHg 84%
    04:00 +20°C° 0 mm 4 mps 747 mmHg 83%
    05:00 +20°C° 0 mm 4 mps 747 mmHg 82%
    06:00 +21°C° 0 mm 4 mps 747 mmHg 82%
    07:00 +23°C° 0 mm 4 mps 747 mmHg 78%
    08:00 +25°C° 0 mm 4 mps 747 mmHg 75%
    09:00 +27°C° 0 mm 4 mps 747 mmHg 72%
    10:00 +27°C° 0 mm 4 mps 747 mmHg 69%
    11:00 +28°C° 0 mm 5 mps 747 mmHg 66%
    12:00 +29°C° 0 mm 5 mps 747 mmHg 62%
    13:00 +29°C° 0.2 mm 5 mps 747 mmHg 63%
    14:00 +29°C° 0.2 mm 5 mps 746 mmHg 63%
    15:00 +29°C° 0.2 mm 4 mps 746 mmHg 63%
    16:00 +28°C° 0.3 mm 4 mps 746 mmHg 67%
    17:00 +28°C° 0.3 mm 3 mps 746 mmHg 71%
    18:00 +27°C° 0.3 mm 3 mps 746 mmHg 75%
    19:00 +26°C° 0 mm 3 mps 746 mmHg 78%
    20:00 +24°C° 0 mm 3 mps 746 mmHg 81%
    21:00 +23°C° 0 mm 2 mps 746 mmHg 84%
    22:00 +21°C° 0 mm 2 mps 746 mmHg 87%
    23:00 +21°C° 0 mm 2 mps 746 mmHg 89%

    24 June, Monday

    Time Temperature Precipitation Wind Pressure Humidity
    00:00 +20°C° 0 mm 2 mps 746 mmHg 92%
    01:00 +19°C° 0 mm 2 mps 746 mmHg 92%
    02:00 +19°C° 0 mm 2 mps 746 mmHg 91%
    03:00 +18°C° 0 mm 2 mps 746 mmHg 91%
    04:00 +18°C° 0 mm 3 mps 746 mmHg 87%
    05:00 +18°C° 0 mm 3 mps 747 mmHg 83%
    06:00 +18°C° 0 mm 3 mps 747 mmHg 79%
    07:00 +19°C° 0 mm 4 mps 747 mmHg 73%
    08:00 +20°C° 0 mm 4 mps 748 mmHg 67%
    09:00 +21°C° 0 mm 5 mps 748 mmHg 62%
    10:00 +21°C° 0 mm 5 mps 748 mmHg 58%
    11:00 +22°C° 0 mm 5 mps 748 mmHg 55%
    12:00 +23°C° 0 mm 5 mps 749 mmHg 51%
    13:00 +22°C° 0 mm 5 mps 749 mmHg 52%
    14:00 +22°C° 0 mm 5 mps 749 mmHg 52%
    15:00 +22°C° 0 mm 5 mps 749 mmHg 52%
    16:00 +21°C° 0 mm 5 mps 749 mmHg 56%
    17:00 +21°C° 0 mm 4 mps 749 mmHg 60%
    18:00 +20°C° 0 mm 3 mps 749 mmHg 65%
    19:00 +19°C° 0 mm 3 mps 749 mmHg 67%
    20:00 +17°C° 0 mm 3 mps 749 mmHg 69%
    21:00 +14°C° 0 mm 3 mps 749 mmHg 71%
    22:00 +13°C° 0 mm 3 mps 749 mmHg 74%
    23:00 +14°C° 0 mm 2 mps 749 mmHg 77%

    25 June, Tuesday

    Time Temperature Precipitation Wind Pressure Humidity
    00:00 +13°C° 0 mm 2 mps 749 mmHg 80%
    01:00 +12°C° 0 mm 2 mps 750 mmHg 82%
    02:00 +12°C° 0 mm 2 mps 750 mmHg 83%
    03:00 +10°C° 0 mm 2 mps 750 mmHg 85%
    04:00 +11°C° 0 mm 3 mps 750 mmHg 83%
    05:00 +12°C° 0 mm 3 mps 750 mmHg 82%
    06:00 +13°C° 0 mm 3 mps 750 mmHg 80%
    07:00 +14°C° 0 mm 4 mps 750 mmHg 76%
    08:00 +15°C° 0 mm 4 mps 750 mmHg 71%
    09:00 +16°C° 0 mm 5 mps 750 mmHg 66%
    10:00 +17°C° 0 mm 5 mps 750 mmHg 63%
    11:00 +17°C° 0 mm 5 mps 750 mmHg 60%
    12:00 +17°C° 0 mm 5 mps 750 mmHg 58%
    13:00 +17°C° 0 mm 6 mps 750 mmHg 57%
    14:00 +17°C° 0 mm 6 mps 750 mmHg 56%
    15:00 +17°C° 0 mm 6 mps 750 mmHg 56%
    16:00 +17°C° 0 mm 5 mps 750 mmHg 59%
    17:00 +17°C° 0 mm 5 mps 750 mmHg 61%
    18:00 +17°C° 0 mm 4 mps 750 mmHg 64%
    19:00 +16°C° 0 mm 3 mps 750 mmHg 69%
    20:00 +14°C° 0 mm 2 mps 750 mmHg 74%
    21:00 +12°C° 0 mm 1 mps 750 mmHg 79%
    22:00 +12°C° 0 mm 1 mps 749 mmHg 81%
    23:00 +11°C° 0 mm 1 mps 749 mmHg 83%
    Show more